Time,TemperatureF,DewpointF,PressureIn,WindDirection,WindDirectionDegrees,WindSpeedMPH,WindSpeedGustMPH,Humidity,HourlyPrecipIn,Conditions,Clouds,dailyrainin,SoftwareType,DateUTC
2013-07-30 13:11:00,69.1,38.0,17.73,North,0,0.0,0.0,32,0.00,,---,0.00,VWS V13.01,2013-07-30 19:11:00,
2013-07-30 13:12:00,69.1,38.0,17.73,North,0,0.0,0.0,32,0.00,,---,0.00,VWS V13.01,2013-07-30 19:12:00,
2013-07-30 13:17:00,69.3,37.4,17.73,North,0,0.0,0.0,31,0.00,,---,0.00,VWS V13.01,2013-07-30 19:17:00,
2013-07-30 13:22:00,69.6,38.5,17.73,North,0,0.0,0.0,32,0.00,,---,0.00,VWS V13.01,2013-07-30 19:22:00,
2013-07-30 13:27:00,69.8,37.8,17.73,North,0,0.0,0.0,31,0.00,,---,0.00,VWS V13.01,2013-07-30 19:27:00,
2013-07-30 13:32:00,70.2,38.1,17.73,North,0,0.0,0.0,31,0.00,,---,0.00,VWS V13.01,2013-07-30 19:32:00,
2013-07-30 13:37:00,70.5,36.8,17.73,North,0,0.0,0.0,29,0.00,,---,0.00,VWS V13.01,2013-07-30 19:37:00,
2013-07-30 13:42:00,70.9,35.3,17.73,North,0,0.0,0.0,27,0.00,,---,0.00,VWS V13.01,2013-07-30 19:42:00,
2013-07-30 13:47:00,71.2,35.6,17.73,North,0,0.0,0.0,27,0.00,,---,0.00,VWS V13.01,2013-07-30 19:47:00,
2013-07-30 13:53:00,71.4,35.7,17.73,North,0,0.0,0.0,27,0.00,,---,0.00,VWS V13.01,2013-07-30 19:53:00,
2013-07-30 13:58:00,71.6,35.9,17.73,North,0,0.0,0.0,27,0.00,,---,0.00,VWS V13.01,2013-07-30 19:58:00,
2013-07-30 14:03:00,71.4,35.7,17.73,North,0,0.0,0.0,27,0.00,,---,0.00,VWS V13.01,2013-07-30 20:03:00,
2013-07-30 14:08:00,71.2,36.5,17.73,North,0,0.0,0.0,28,0.00,,---,0.00,VWS V13.01,2013-07-30 20:08:00,
2013-07-30 14:13:00,71.1,35.4,17.73,North,0,0.0,0.0,27,0.00,,---,0.00,VWS V13.01,2013-07-30 20:13:00,
2013-07-30 14:18:00,71.1,35.4,17.73,North,0,0.0,0.0,27,0.00,,---,0.00,VWS V13.01,2013-07-30 20:18:00,
2013-07-30 14:23:00,70.9,34.3,17.73,North,0,0.0,0.0,26,0.00,,---,0.00,VWS V13.01,2013-07-30 20:23:00,
2013-07-30 14:29:00,70.7,34.2,17.73,North,0,0.0,0.0,26,0.00,,---,0.00,VWS V13.01,2013-07-30 20:29:00,
2013-07-30 14:34:00,70.9,35.3,17.73,North,0,0.0,0.0,27,0.00,,---,0.00,VWS V13.01,2013-07-30 20:34:00,
2013-07-30 14:39:00,70.9,34.3,17.73,North,0,0.0,0.0,26,0.00,,---,0.00,VWS V13.01,2013-07-30 20:39:00,
2013-07-30 14:44:00,71.1,33.5,17.73,North,0,0.0,0.0,25,0.00,,---,0.00,VWS V13.01,2013-07-30 20:44:00,
2013-07-30 14:49:00,71.1,33.5,17.73,North,0,0.0,0.0,25,0.00,,---,0.00,VWS V13.01,2013-07-30 20:49:00,
2013-07-30 14:54:00,71.1,33.5,17.73,North,0,0.0,0.0,25,0.00,,---,0.00,VWS V13.01,2013-07-30 20:54:00,
2013-07-30 14:59:00,71.2,33.6,17.73,North,0,0.0,0.0,25,0.00,,---,0.00,VWS V13.01,2013-07-30 20:59:00,
2013-07-30 15:04:00,71.1,32.5,17.73,North,0,0.0,0.0,24,0.00,,---,0.00,VWS V13.01,2013-07-30 21:04:00,
2013-07-30 15:09:00,70.9,32.3,17.73,North,0,0.0,0.0,24,0.00,,---,0.00,VWS V13.01,2013-07-30 21:09:00,
2013-07-30 15:14:00,70.7,33.2,17.73,North,0,0.0,0.0,25,0.00,,---,0.00,VWS V13.01,2013-07-30 21:14:00,
2013-07-30 15:19:00,70.5,33.0,17.73,North,0,0.0,0.0,25,0.00,,---,0.00,VWS V13.01,2013-07-30 21:19:00,
2013-07-30 15:25:00,70.5,33.0,17.73,North,0,0.0,0.0,25,0.00,,---,0.00,VWS V13.01,2013-07-30 21:25:00,
2013-07-30 15:29:00,70.5,33.0,17.73,North,0,0.0,0.0,25,0.00,,---,0.00,VWS V13.01,2013-07-30 21:29:00,
2013-07-30 15:35:00,70.7,33.2,17.73,North,0,0.0,0.0,25,0.00,,---,0.00,VWS V13.01,2013-07-30 21:35:00,
2013-07-30 15:40:00,70.7,33.2,17.73,North,0,0.0,0.0,25,0.00,,---,0.00,VWS V13.01,2013-07-30 21:40:00,
2013-07-30 15:45:00,70.7,33.2,17.73,North,0,0.0,0.0,25,0.00,,---,0.00,VWS V13.01,2013-07-30 21:45:00,
2013-07-30 15:50:00,70.2,33.7,17.73,North,0,0.0,0.0,26,0.00,,---,0.00,VWS V13.01,2013-07-30 21:50:00,
2013-07-30 15:55:00,70.0,34.5,17.73,North,0,0.0,0.0,27,0.00,,---,0.00,VWS V13.01,2013-07-30 21:55:00,
2013-07-30 16:00:00,69.8,34.3,17.73,North,0,0.0,0.0,27,0.00,,---,0.00,VWS V13.01,2013-07-30 22:00:00,
2013-07-30 16:05:00,69.6,35.1,17.73,North,0,0.0,0.0,28,0.00,,---,0.00,VWS V13.01,2013-07-30 22:05:00,
2013-07-30 16:10:00,69.6,36.0,17.73,North,0,0.0,0.0,29,0.00,,---,0.00,VWS V13.01,2013-07-30 22:10:00,
2013-07-30 16:15:00,69.4,36.7,17.73,North,0,0.0,0.0,30,0.00,,---,0.00,VWS V13.01,2013-07-30 22:15:00,
2013-07-30 16:20:00,69.4,36.7,17.73,North,0,0.0,0.0,30,0.00,,---,0.00,VWS V13.01,2013-07-30 22:20:00,
2013-07-30 16:26:00,69.4,37.5,17.73,North,0,0.0,0.0,31,0.00,,---,0.00,VWS V13.01,2013-07-30 22:26:00,
2013-07-30 16:31:00,69.4,37.5,17.73,North,0,0.0,0.0,31,0.00,,---,0.00,VWS V13.01,2013-07-30 22:31:00,
2013-07-30 16:36:00,69.4,37.5,17.73,North,0,0.0,0.0,31,0.00,,---,0.00,VWS V13.01,2013-07-30 22:36:00,
2013-07-30 16:41:00,69.3,37.4,17.73,North,0,0.0,0.0,31,0.00,,---,0.00,VWS V13.01,2013-07-30 22:41:00,
2013-07-30 16:46:00,69.3,37.4,17.73,North,0,0.0,0.0,31,0.00,,---,0.00,VWS V13.01,2013-07-30 22:46:00,
2013-07-30 16:51:00,69.1,37.2,17.73,North,0,0.0,0.0,31,0.00,,---,0.00,VWS V13.01,2013-07-30 22:51:00,
2013-07-30 16:56:00,69.1,37.2,17.73,North,0,0.0,0.0,31,0.00,,---,0.00,VWS V13.01,2013-07-30 22:56:00,
2013-07-30 17:01:00,68.9,37.0,17.73,North,0,0.0,0.0,31,0.00,,---,0.00,VWS V13.01,2013-07-30 23:01:00,
2013-07-30 17:07:00,68.9,37.8,17.73,North,0,0.0,0.0,32,0.00,,---,0.00,VWS V13.01,2013-07-30 23:07:00,
2013-07-30 17:12:00,68.7,37.7,17.73,North,0,0.0,0.0,32,0.00,,---,0.00,VWS V13.01,2013-07-30 23:12:00,
2013-07-30 17:17:00,68.7,37.7,17.73,North,0,0.0,0.0,32,0.00,,---,0.00,VWS V13.01,2013-07-30 23:17:00,
2013-07-30 17:22:00,68.5,37.5,17.73,North,0,0.0,0.0,32,0.00,,---,0.00,VWS V13.01,2013-07-30 23:22:00,
2013-07-30 17:27:00,68.5,37.5,17.73,North,0,0.0,0.0,32,0.00,,---,0.00,VWS V13.01,2013-07-30 23:27:00,
2013-07-30 17:32:00,68.4,37.4,17.73,North,0,0.0,0.0,32,0.00,,---,0.00,VWS V13.01,2013-07-30 23:32:00,
2013-07-30 17:38:00,68.4,37.4,17.73,North,0,0.0,0.0,32,0.00,,---,0.00,VWS V13.01,2013-07-30 23:38:00,
2013-07-30 17:43:00,68.2,37.2,17.73,North,0,0.0,0.0,32,0.00,,---,0.00,VWS V13.01,2013-07-30 23:43:00,
2013-07-30 17:48:00,68.2,35.6,17.73,North,0,0.0,0.0,30,0.00,,---,0.00,VWS V13.01,2013-07-30 23:48:00,
2013-07-30 17:53:00,68.2,34.7,17.73,North,0,0.0,0.0,29,0.00,,---,0.00,VWS V13.01,2013-07-30 23:53:00,
2013-07-30 17:58:00,68.2,34.7,17.73,North,0,0.0,0.0,29,0.00,,---,0.00,VWS V13.01,2013-07-30 23:58:00,
2013-07-30 18:03:00,68.2,35.6,17.73,North,0,0.0,0.0,30,0.00,,---,0.00,VWS V13.01,2013-07-31 00:03:00,
2013-07-30 18:08:00,68.0,37.1,17.73,North,0,0.0,0.0,32,0.00,,---,0.00,VWS V13.01,2013-07-31 00:08:00,
2013-07-30 18:13:00,67.6,36.8,17.73,North,0,0.0,0.0,32,0.00,,---,0.00,VWS V13.01,2013-07-31 00:13:00,
2013-07-30 18:18:00,67.5,37.4,17.73,North,0,0.0,0.0,33,0.00,,---,0.00,VWS V13.01,2013-07-31 00:18:00,
2013-07-30 18:23:00,67.5,36.6,17.73,North,0,0.0,0.0,32,0.00,,---,0.00,VWS V13.01,2013-07-31 00:23:00,
2013-07-30 18:28:00,67.5,36.6,17.73,North,0,0.0,0.0,32,0.00,,---,0.00,VWS V13.01,2013-07-31 00:28:00,
2013-07-30 18:34:00,67.5,35.8,17.73,North,0,0.0,0.0,31,0.00,,---,0.00,VWS V13.01,2013-07-31 00:34:00,
2013-07-30 18:39:00,67.5,35.8,17.73,North,0,0.0,0.0,31,0.00,,---,0.00,VWS V13.01,2013-07-31 00:39:00,
2013-07-30 18:44:00,67.5,35.0,17.73,North,0,0.0,0.0,30,0.00,,---,0.00,VWS V13.01,2013-07-31 00:44:00,
2013-07-30 18:49:00,67.3,35.6,17.73,North,0,0.0,0.0,31,0.00,,---,0.00,VWS V13.01,2013-07-31 00:49:00,
2013-07-30 18:54:00,67.3,35.6,17.73,North,0,0.0,0.0,31,0.00,,---,0.00,VWS V13.01,2013-07-31 00:54:00,
2013-07-30 18:59:00,67.3,36.4,17.73,North,0,0.0,0.0,32,0.00,,---,0.00,VWS V13.01,2013-07-31 00:59:00,
2013-07-30 19:04:00,67.1,36.3,17.73,North,0,0.0,0.0,32,0.00,,---,0.00,VWS V13.01,2013-07-31 01:04:00,
2013-07-30 19:09:00,67.1,36.3,17.73,North,0,0.0,0.0,32,0.00,,---,0.00,VWS V13.01,2013-07-31 01:09:00,
2013-07-30 19:14:00,66.9,36.1,17.73,North,0,0.0,0.0,32,0.00,,---,0.00,VWS V13.01,2013-07-31 01:14:00,
2013-07-30 19:19:00,66.7,36.0,17.73,North,0,0.0,0.0,32,0.00,,---,0.00,VWS V13.01,2013-07-31 01:19:00,
2013-07-30 19:24:00,66.7,35.2,17.73,North,0,0.0,0.0,31,0.00,,---,0.00,VWS V13.01,2013-07-31 01:24:00,
2013-07-30 19:29:00,66.7,35.2,17.73,North,0,0.0,0.0,31,0.00,,---,0.00,VWS V13.01,2013-07-31 01:29:00,
2013-07-30 19:34:00,66.7,35.2,17.73,North,0,0.0,0.0,31,0.00,,---,0.00,VWS V13.01,2013-07-31 01:34:00,
2013-07-30 19:39:00,66.6,35.0,17.73,North,0,0.0,0.0,31,0.00,,---,0.00,VWS V13.01,2013-07-31 01:39:00,
2013-07-30 19:44:00,66.4,35.7,17.73,North,0,0.0,0.0,32,0.00,,---,0.00,VWS V13.01,2013-07-31 01:44:00,
2013-07-30 19:49:00,66.2,35.5,17.73,North,0,0.0,0.0,32,0.00,,---,0.00,VWS V13.01,2013-07-31 01:49:00,
2013-07-30 19:54:00,66.2,35.5,17.73,North,0,0.0,0.0,32,0.00,,---,0.00,VWS V13.01,2013-07-31 01:54:00,
2013-07-30 19:59:00,66.2,36.3,17.73,North,0,0.0,0.0,33,0.00,,---,0.00,VWS V13.01,2013-07-31 01:59:00,
2013-07-30 20:04:00,66.0,36.1,17.73,North,0,0.0,0.0,33,0.00,,---,0.00,VWS V13.01,2013-07-31 02:04:00,
2013-07-30 20:10:00,66.0,36.1,17.73,North,0,0.0,0.0,33,0.00,,---,0.00,VWS V13.01,2013-07-31 02:10:00,
2013-07-30 20:15:00,66.0,36.1,17.73,North,0,0.0,0.0,33,0.00,,---,0.00,VWS V13.01,2013-07-31 02:15:00,
2013-07-30 20:20:00,66.0,36.1,17.73,North,0,0.0,0.0,33,0.00,,---,0.00,VWS V13.01,2013-07-31 02:20:00,
2013-07-30 20:25:00,65.8,36.0,17.73,North,0,0.0,0.0,33,0.00,,---,0.00,VWS V13.01,2013-07-31 02:25:00,
2013-07-30 20:30:00,65.8,36.0,17.73,North,0,0.0,0.0,33,0.00,,---,0.00,VWS V13.01,2013-07-31 02:30:00,
2013-07-30 20:35:00,65.8,36.0,17.73,North,0,0.0,0.0,33,0.00,,---,0.00,VWS V13.01,2013-07-31 02:35:00,
2013-07-30 20:40:00,65.7,35.8,17.73,North,0,0.0,0.0,33,0.00,,---,0.00,VWS V13.01,2013-07-31 02:40:00,
2013-07-30 20:45:00,65.7,35.8,17.73,North,0,0.0,0.0,33,0.00,,---,0.00,VWS V13.01,2013-07-31 02:45:00,
2013-07-30 20:50:00,65.3,35.5,17.73,North,0,0.0,0.0,33,0.00,,---,0.00,VWS V13.01,2013-07-31 02:50:00,
2013-07-30 20:55:00,65.1,35.3,17.73,North,0,0.0,0.0,33,0.00,,---,0.00,VWS V13.01,2013-07-31 02:55:00,
2013-07-30 21:00:00,64.9,35.2,17.73,North,0,0.0,0.0,33,0.00,,---,0.00,VWS V13.01,2013-07-31 03:00:00,
2013-07-30 21:05:00,64.6,34.8,17.73,North,0,0.0,0.0,33,0.00,,---,0.00,VWS V13.01,2013-07-31 03:05:00,
2013-07-30 21:10:00,64.4,34.7,17.73,North,0,0.0,0.0,33,0.00,,---,0.00,VWS V13.01,2013-07-31 03:10:00,
2013-07-30 21:15:00,64.2,34.5,17.73,North,0,0.0,0.0,33,0.00,,---,0.00,VWS V13.01,2013-07-31 03:15:00,
2013-07-30 21:20:00,64.2,34.5,17.73,North,0,0.0,0.0,33,0.00,,---,0.00,VWS V13.01,2013-07-31 03:20:00,
2013-07-30 21:25:00,64.4,34.7,17.73,North,0,0.0,0.0,33,0.00,,---,0.00,VWS V13.01,2013-07-31 03:25:00,
2013-07-30 21:30:00,64.6,34.8,17.73,North,0,0.0,0.0,33,0.00,,---,0.00,VWS V13.01,2013-07-31 03:30:00,
2013-07-30 21:35:00,64.8,34.2,17.73,North,0,0.0,0.0,32,0.00,,---,0.00,VWS V13.01,2013-07-31 03:35:00,
2013-07-30 21:40:00,64.6,34.1,17.73,North,0,0.0,0.0,32,0.00,,---,0.00,VWS V13.01,2013-07-31 03:40:00,
2013-07-30 21:45:00,64.4,33.9,17.73,North,0,0.0,0.0,32,0.00,,---,0.00,VWS V13.01,2013-07-31 03:45:00,
2013-07-30 21:50:00,64.4,33.9,17.73,North,0,0.0,0.0,32,0.00,,---,0.00,VWS V13.01,2013-07-31 03:50:00,
2013-07-30 21:55:00,64.0,34.4,17.73,North,0,0.0,0.0,33,0.00,,---,0.00,VWS V13.01,2013-07-31 03:55:00,
2013-07-30 22:00:00,63.7,34.1,17.73,North,0,0.0,0.0,33,0.00,,---,0.00,VWS V13.01,2013-07-31 04:00:00,
2013-07-30 22:01:00,63.7,34.1,17.73,North,0,0.0,0.0,33,0.00,,---,0.00,VWS V13.01,2013-07-31 04:01:00,
2013-07-30 22:02:00,63.7,34.1,17.73,North,0,0.0,0.0,33,0.00,,---,0.00,VWS V13.01,2013-07-31 04:02:00,
2013-07-30 22:07:00,63.5,33.9,17.73,North,0,0.0,0.0,33,0.00,,---,0.00,VWS V13.01,2013-07-31 04:07:00,
2013-07-30 22:12:00,63.3,33.8,17.73,North,0,0.0,0.0,33,0.00,,---,0.00,VWS V13.01,2013-07-31 04:12:00,
2013-07-30 22:17:00,63.3,33.8,17.73,North,0,0.0,0.0,33,0.00,,---,0.00,VWS V13.01,2013-07-31 04:17:00,
2013-07-30 22:22:00,63.3,33.8,17.73,North,0,0.0,0.0,33,0.00,,---,0.00,VWS V13.01,2013-07-31 04:22:00,
2013-07-30 22:27:00,63.1,33.6,17.73,North,0,0.0,0.0,33,0.00,,---,0.00,VWS V13.01,2013-07-31 04:27:00,
2013-07-30 22:32:00,63.0,33.4,17.73,North,0,0.0,0.0,33,0.00,,---,0.00,VWS V13.01,2013-07-31 04:32:00,
2013-07-30 22:37:00,63.1,33.6,17.73,North,0,0.0,0.0,33,0.00,,---,0.00,VWS V13.01,2013-07-31 04:37:00,
2013-07-30 22:43:00,63.3,33.0,17.73,North,0,0.0,0.0,32,0.00,,---,0.00,VWS V13.01,2013-07-31 04:43:00,
2013-07-30 22:48:00,63.3,32.2,17.73,North,0,0.0,0.0,31,0.00,,---,0.00,VWS V13.01,2013-07-31 04:48:00,
2013-07-30 22:53:00,63.1,32.8,17.73,North,0,0.0,0.0,32,0.00,,---,0.00,VWS V13.01,2013-07-31 04:53:00,
2013-07-30 22:58:00,62.8,32.5,17.73,North,0,0.0,0.0,32,0.00,,---,0.00,VWS V13.01,2013-07-31 04:58:00,
2013-07-30 23:03:00,62.6,32.3,17.73,North,0,0.0,0.0,32,0.00,,---,0.00,VWS V13.01,2013-07-31 05:03:00,
2013-07-30 23:08:00,62.4,33.0,17.73,North,0,0.0,0.0,33,0.00,,---,0.00,VWS V13.01,2013-07-31 05:08:00,
2013-07-30 23:13:00,62.2,32.8,17.73,North,0,0.0,0.0,33,0.00,,---,0.00,VWS V13.01,2013-07-31 05:13:00,
2013-07-30 23:18:00,62.2,32.8,17.73,North,0,0.0,0.0,33,0.00,,---,0.00,VWS V13.01,2013-07-31 05:18:00,
2013-07-30 23:23:00,62.2,32.8,17.73,North,0,0.0,0.0,33,0.00,,---,0.00,VWS V13.01,2013-07-31 05:23:00,
2013-07-30 23:28:00,62.1,32.6,17.73,North,0,0.0,0.0,33,0.00,,---,0.00,VWS V13.01,2013-07-31 05:28:00,
2013-07-30 23:33:00,62.4,33.7,17.73,North,0,0.0,0.0,34,0.00,,---,0.00,VWS V13.01,2013-07-31 05:33:00,
2013-07-30 23:38:00,63.0,33.4,17.73,North,0,0.0,0.0,33,0.00,,---,0.00,VWS V13.01,2013-07-31 05:38:00,
2013-07-30 23:44:00,64.0,32.8,17.73,North,0,0.0,0.0,31,0.00,,---,0.00,VWS V13.01,2013-07-31 05:44:00,
2013-07-30 23:49:00,64.2,33.0,17.73,North,0,0.0,0.0,31,0.00,,---,0.00,VWS V13.01,2013-07-31 05:49:00,
2013-07-30 23:54:00,64.0,32.8,17.73,North,0,0.0,0.0,31,0.00,,---,0.00,VWS V13.01,2013-07-31 05:54:00,
2013-07-30 23:59:00,64.2,33.0,17.73,North,0,0.0,0.0,31,0.00,,---,0.00,VWS V13.01,2013-07-31 05:59:00,